#timestamp,LO_Frequency,Hit,StdDev 
1635008415.3,286046999.7,N
1635008435.1,286046999.7,N
1635008455.9,286047001.6,N
1635008475.7,286046999.8,N
1635008495.5,286047001.5,N
1635008515.4,286047003.9,Y
1635008535.2,286047003.6,P
1635008555.1,286047004.1,N
1635008556.0,286047004.1,N
1635008575.8,286047001.3,N
1635008595.6,286047000.2,N
1635008615.5,286047002.5,N
1635008635.3,286047004.3,N
1635008655.1,286047003.1,N
1635008675.9,286047003.8,N
1635008695.7,286047004.2,N
1635008715.6,286047004.3,N
1635008735.4,286047004.1,N
1635008755.2,286047003.2,N
1635008775.1,286047005.6,Y
1635008776.0,286047005.6,P
1635008795.8,286047001.1,N
1635008815.6,286047000.0,N
1635008835.5,286046998.7,N
1635008855.3,286047000.8,N
1635008875.2,286047002.3,N
1635008895.9,286047002.3,N
1635008915.7,286047002.0,N
1635008935.6,286047002.2,N
1635008955.4,286047002.1,N
1635008975.2,286047002.0,N
1635008995.1,286047002.0,N
1635008996.0,286047002.0,N
1635009015.8,286047001.5,N
1635009035.7,286047001.7,N
1635009055.5,286047001.5,N
1635009075.3,286047002.1,N
1635009095.2,286047001.6,N
1635009115.0,286047001.9,N
1635009115.9,286047001.9,N
1635009135.8,286047001.4,N
1635009155.6,286047005.5,Y
1635009175.4,286046999.8,P
1635009195.3,286047003.9,P
1635009215.1,286047004.0,N
1635009235.8,286047001.3,N
1635009255.7,286047003.8,N
1635009275.5,286047001.6,N
1635009295.4,286047004.0,N
1635009315.2,286047002.6,N
1635009335.0,286047003.9,N
1635009335.9,286047003.9,N
1635009355.8,286046999.7,N
1635009375.6,286047001.6,N
1635009395.4,286047003.5,N
1635009415.3,286047005.9,Y
1635009435.1,286047001.9,P
1635009455.9,286047000.8,N
1635009475.7,286046998.9,N
1635009495.5,286046998.3,N
1635009515.4,286046999.0,N
1635009535.2,286046996.8,N
1635009555.0,286046996.9,N
1635009556.0,286046996.9,N
1635009575.8,286046997.7,N
1635009595.6,286046996.5,N
1635009615.5,286046999.2,N
1635009635.3,286046999.3,N
1635009655.1,286046999.3,N
1635009675.9,286046998.8,N
1635009695.7,286047002.7,N
1635009715.6,286047002.6,N
1635009735.4,286047002.3,N
1635009755.2,286047003.6,N
1635009775.1,286047005.0,N
1635009776.0,286047005.0,N
1635009795.8,286047005.5,N
1635009815.6,286047003.6,N
1635009835.5,286047005.9,N
1635009855.3,286047003.4,N
1635009875.2,286047005.9,N
1635009895.9,286047003.3,N
1635009915.7,286047003.2,N
1635009935.6,286047001.7,N
1635009955.4,286047001.5,N
1635009975.2,286047003.2,N
1635009995.1,286047007.2,N
1635009996.0,286047007.2,N
1635010015.8,286047006.2,N
1635010035.7,286047007.2,N
1635010055.5,286047008.6,N
1635010075.3,286047007.3,N
1635010095.2,286047006.9,N
1635010115.0,286047008.6,N
1635010115.9,286047008.6,N
1635010135.8,286047006.8,N
1635010155.6,286047006.5,N
1635010175.4,286047005.2,N
1635010195.3,286047002.9,N
1635010215.1,286047004.7,N
1635010235.8,286047005.7,N
1635010255.7,286047005.4,N
1635010275.5,286047005.8,N
1635010295.4,286047004.8,N
1635010315.2,286047006.4,Y
1635010335.0,286047004.3,P
1635010335.9,286047004.3,P
1635010355.8,286047004.4,P
1635010375.6,286047002.0,Y
1635010395.4,286046997.2,P
1635010415.3,286046996.9,N
1635010465.2,286046995.2,E
1635010475.1,286046998.8,N
1635010476.0,286046998.8,P
1635010495.8,286047000.7,P
1635010515.7,286047000.1,N
1635010535.5,286047001.1,N
1635010555.3,286047001.6,N
1635010575.2,286047000.6,N
1635010595.9,286047001.0,N
1635010615.7,286046998.7,N
1635010635.6,286047001.2,N
1635010655.4,286046999.7,N
1635010675.2,286047002.4,N
1635010695.1,286047002.8,N
1635010696.0,286047002.8,N
1635010715.8,286047002.3,N
1635010735.7,286047002.3,N
1635010755.5,286047002.8,N
1635010775.3,286046999.9,N
1635010795.2,286047000.4,N
1635010815.0,286047002.5,N
1635010815.9,286047002.5,N
1635010835.8,286047001.4,N
1635010855.6,286047001.9,N
1635010875.4,286047002.6,N
1635010895.3,286047002.0,N
1635010915.1,286047004.1,Y
1635010935.8,286047004.4,P
1635010955.7,286047002.6,N
1635010975.5,286047001.9,N
1635010995.4,286047002.0,N
1635011015.2,286047002.0,N
1635011035.0,286047001.8,N
1635011035.9,286047001.8,N
1635011055.8,286047004.1,Y
1635011075.6,286047002.3,P
1635011095.5,286047002.0,P
1635011115.3,286047001.3,P
1635011135.1,286047001.6,Y
1635011155.9,286047001.0,P
1635011205.7,286046999.7,E
1635011215.7,286046999.8,N
1635011235.5,286047001.0,P
1635011255.3,286047001.2,N
1635011275.2,286047002.4,Y
1635011295.0,286046999.6,P
1635011295.9,286046999.6,N
1635011315.8,286046996.5,P
1635011335.6,286046998.3,N
1635011355.4,286047000.8,N
1635011375.3,286047002.6,N
1635011395.1,286047004.0,N
1635011415.8,286047002.8,N
1635011435.7,286047000.0,N
1635011455.5,286047001.5,N
1635011475.4,286047001.7,N
1635011495.2,286047000.0,N
1635011515.0,286047000.9,N
1635011515.9,286047000.9,N
1635011535.8,286047002.4,N
1635011555.6,286047001.6,N
1635011575.4,286047002.1,N
1635011595.3,286047002.8,N
1635011615.1,286047001.8,N
1635011635.9,286047001.4,N
1635011655.7,286047003.5,N
1635011675.5,286047002.1,N
1635011695.4,286047001.4,N
1635011715.2,286047002.0,N
1635011735.0,286047002.4,N
1635011735.9,286047002.4,N
1635011755.8,286047004.0,N
1635011775.6,286047003.8,N
1635011795.5,286047005.2,Y
1635011815.3,286047003.0,P
1635011835.1,286047004.8,P
1635011855.9,286047007.0,P
1635011875.7,286047007.1,Y
1635011895.6,286047000.0,P
1635011915.4,286047002.5,N
1635011935.2,286047001.3,N
1635011955.1,286047004.3,N
1635011956.0,286047004.3,N
1635011975.8,286047004.1,N
1635011995.6,286047004.4,N
